Terug naar catalogus

VANGUARD R/B

ActiefUNKNOWN
NORAD 16·ROCKET BODY·🇺🇸 United States

Gelanceerd Mar 17, 1958 vanaf Cape Canaveral Space Force Station

Loading…

Volgende Passages (komende 24 uur)

TLE

VersSource: Space-Track

Epoch: Sep 8, 2026, 17:33 UTC

1 00016U 58002A   26251.73142819  .00000175  00000-0  26878-3 0  9990
2 00016  34.2605  63.5406 2016256 113.3196 269.1702 10.49620373697698

Volg VANGUARD R/B in realtime met AllMySat

Download on the App Store